Satellite: WO-39
Catalog number: 26061
Epoch time:      100353.54304388
Element set:     136 
Inclination:      100.1922 deg
RA of node:       249.0346 deg
Eccentricity:    0.0036758
Arg of perigee:   353.1461 deg
Mean anomaly:       6.9213 deg
Mean motion:   14.35175367 rev/day
Decay rate:    9.2299E-006 rev/day^2
Epoch rev:            4681
Checksum:              306

Satellite: ISS
Catalog number: 25544
Epoch time:      100355.21480448
Element set:     404 
Inclination:       51.5744 deg
RA of node:       274.8127 deg
Eccentricity:    0.0007494
Arg of perigee:   249.5983 deg
Mean anomaly:     265.9916 deg
Mean motion:   15.65679565 rev/day
Decay rate:    4.3702E-004 rev/day^2
Epoch rev:           11907
Checksum:              440

Satellite: POSAT
Catalog number: 22829
Epoch time:      100354.68303224
Element set:     859 
Inclination:       98.3766 deg
RA of node:        45.7755 deg
Eccentricity:    0.0011098
Arg of perigee:    60.8922 deg
Mean anomaly:     299.3370 deg
Mean motion:   14.28922720 rev/day
Decay rate:    2.6800E-006 rev/day^2
Epoch rev:           37707
Checksum:              327

Satellite: JAWSAT
Catalog number: 26065
Epoch time:      100354.56108656
Element set:     107 
Inclination:      100.1937 deg
RA of node:       250.0174 deg
Eccentricity:    0.0038002
Arg of perigee:   352.7068 deg
Mean anomaly:       7.3554 deg
Mean motion:   14.34429981 rev/day
Decay rate:    3.9299E-006 rev/day^2
Epoch rev:            4693
Checksum:              395

Satellite: OPAL
Catalog number: 26062
Epoch time:      100354.20010006
Element set:     402 
Inclination:      100.2265 deg
RA of node:       260.4172 deg
Eccentricity:    0.0023821
Arg of perigee:   354.1989 deg
Mean anomaly:       5.8947 deg
Mean motion:   14.80177460 rev/day
Decay rate:    2.4953E-003 rev/day^2
Epoch rev:            4742
Checksum:              258

Satellite: OCS
Catalog number: 26063
Epoch time:      100354.26397474
Element set:     108 
Inclination:      100.1944 deg
RA of node:       249.6528 deg
Eccentricity:    0.0037272
Arg of perigee:   352.3525 deg
Mean anomaly:       7.7081 deg
Mean motion:   14.34492003 rev/day
Decay rate:    3.2299E-006 rev/day^2
Epoch rev:            4689
Checksum:              300

Satellite: UNK3
Catalog number: 26093
Epoch time:      100353.25200634
Element set:     152 
Inclination:      100.1862 deg
RA of node:       248.7587 deg
Eccentricity:    0.0037350
Arg of perigee:   355.6700 deg
Mean anomaly:       4.4180 deg
Mean motion:   14.36056661 rev/day
Decay rate:    2.4180E-005 rev/day^2
Epoch rev:            4460
Checksum:              265

Satellite: UNK4
Catalog number: 26094
Epoch time:      100353.68943583
Element set:     101 
Inclination:      100.1892 deg
RA of node:       249.0173 deg
Eccentricity:    0.0037853
Arg of perigee:   355.2447 deg
Mean anomaly:       4.8468 deg
Mean motion:   14.35218663 rev/day
Decay rate:    1.2010E-005 rev/day^2
Epoch rev:            4413
Checksum:              286

Satellite: SAUDISAT 1A
Catalog number: 26548
Epoch time:      100353.90387931
Element set:     43 
Inclination:       64.5599 deg
RA of node:       296.4685 deg
Eccentricity:    0.0010415
Arg of perigee:    14.7322 deg
Mean anomaly:     345.4138 deg
Mean motion:   14.75950201 rev/day
Decay rate:    2.0760E-005 rev/day^2
Epoch rev:            1231
Checksum:              289

Satellite: UNISAT
Catalog number: 26547
Epoch time:      100354.46925303
Element set:     45 
Inclination:       64.5618 deg
RA of node:       295.8643 deg
Eccentricity:    0.0018158
Arg of perigee:    67.5481 deg
Mean anomaly:     292.7627 deg
Mean motion:   14.73216427 rev/day
Decay rate:    3.2520E-005 rev/day^2
Epoch rev:            1239
Checksum:              310

Satellite: SAUDISAT 1B
Catalog number: 26549
Epoch time:      100354.22316903
Element set:     39 
Inclination:       64.5514 deg
RA of node:       296.2983 deg
Eccentricity:    0.0014576
Arg of perigee:    59.5356 deg
Mean anomaly:     300.7180 deg
Mean motion:   14.73847739 rev/day
Decay rate:    1.7270E-005 rev/day^2
Epoch rev:            1235
Checksum:              310

Satellite: TIUNGSAT-1
Catalog number: 26545
Epoch time:      100348.81497596
Element set:     46 
Inclination:       64.5622 deg
RA of node:       312.4596 deg
Eccentricity:    0.0011305
Arg of perigee:    43.0051 deg
Mean anomaly:     317.1930 deg
Mean motion:   14.74735616 rev/day
Decay rate:    1.5020E-005 rev/day^2
Epoch rev:            1155
Checksum:              277

Satellite: MEGSAT-1
Catalog number: 26546
Epoch time:      100300.90113007
Element set:     44 
Inclination:       64.5565 deg
RA of node:        98.4503 deg
Eccentricity:    0.0004641
Arg of perigee:    22.5030 deg
Mean anomaly:     337.6284 deg
Mean motion:   14.76095605 rev/day
Decay rate:    2.0170E-005 rev/day^2
Epoch rev:             450
Checksum:              253

Satellite: DNEPR-1 R/B
Catalog number: 26550
Epoch time:      100300.95678734
Element set:     48 
Inclination:       64.5580 deg
RA of node:       111.6189 deg
Eccentricity:    0.0521266
Arg of perigee:   122.5374 deg
Mean anomaly:     242.7151 deg
Mean motion:   13.78368992 rev/day
Decay rate:    7.2100E-006 rev/day^2
Epoch rev:             421
Checksum:              293

Satellite: DNEPR-1 DEB
Catalog number: 26551
Epoch time:      100300.94213223
Element set:     62 
Inclination:       64.5561 deg
RA of node:        98.1324 deg
Eccentricity:    0.0007997
Arg of perigee:   337.0117 deg
Mean anomaly:      23.0632 deg
Mean motion:   14.77613920 rev/day
Decay rate:    9.2529E-005 rev/day^2
Epoch rev:             450
Checksum:              273

Satellite: NOAA 9
Catalog number: 15427
Epoch time:      100335.85266196
Element set:     688 
Inclination:       98.7679 deg
RA of node:        46.3051 deg
Eccentricity:    0.0015257
Arg of perigee:    13.2476 deg
Mean anomaly:     346.9094 deg
Mean motion:   14.14402976 rev/day
Decay rate:    8.5100E-006 rev/day^2
Epoch rev:           82365
Checksum:              337

Satellite: NOAA 10
Catalog number: 16969
Epoch time:      100349.92964479
Element set:     680 
Inclination:       98.6584 deg
RA of node:       333.1709 deg
Eccentricity:    0.0011692
Arg of perigee:   245.8471 deg
Mean anomaly:     114.1486 deg
Mean motion:   14.26058319 rev/day
Decay rate:    3.9800E-006 rev/day^2
Epoch rev:           74046
Checksum:              347

Satellite: NOAA 11
Catalog number: 19531
Epoch time:      100349.90722737
Element set:     522 
Inclination:       98.9842 deg
RA of node:        54.9888 deg
Eccentricity:    0.0011426
Arg of perigee:   300.4397 deg
Mean anomaly:      59.5633 deg
Mean motion:   14.13797751 rev/day
Decay rate:    2.5199E-006 rev/day^2
Epoch rev:           63034
Checksum:              337

Satellite: NOAA 12
Catalog number: 21263
Epoch time:      100354.90950437
Element set:     974 
Inclination:       98.5604 deg
RA of node:       345.7164 deg
Eccentricity:    0.0012713
Arg of perigee:   160.4143 deg
Mean anomaly:     199.7529 deg
Mean motion:   14.23791111 rev/day
Decay rate:    3.2600E-006 rev/day^2
Epoch rev:           49865
Checksum:              310

Satellite: NOAA 13
Catalog number: 22739
Epoch time:      100336.04119143
Element set:     350 
Inclination:       99.2092 deg
RA of node:       342.0743 deg
Eccentricity:    0.0009825
Arg of perigee:   347.7826 deg
Mean anomaly:      12.3104 deg
Mean motion:   14.11474530 rev/day
Decay rate:    6.0100E-006 rev/day^2
Epoch rev:           37663
Checksum:              380

Satellite: NOAA 14
Catalog number: 23455
Epoch time:      100354.91440687
Element set:     563 
Inclination:       99.1622 deg
RA of node:       337.1672 deg
Eccentricity:    0.0008944
Arg of perigee:   293.9930 deg
Mean anomaly:      66.0305 deg
Mean motion:   14.12532930 rev/day
Decay rate:    2.8800E-006 rev/day^2
Epoch rev:           30782
Checksum:              416

Satellite: NOAA 15
Catalog number: 25338
Epoch time:      100354.82817695
Element set:     17 
Inclination:       98.6195 deg
RA of node:        19.9751 deg
Eccentricity:    0.0011641
Arg of perigee:    95.8783 deg
Mean anomaly:     264.3723 deg
Mean motion:   14.23431695 rev/day
Decay rate:    1.9399E-006 rev/day^2
Epoch rev:           13527
Checksum:              344

Satellite: NOAA 16
Catalog number: 26536
Epoch time:      100354.47458394
Element set:     115 
Inclination:       98.8052 deg
RA of node:       297.4165 deg
Eccentricity:    0.0011360
Arg of perigee:    26.6749 deg
Mean anomaly:     333.5519 deg
Mean motion:   14.10998417 rev/day
Decay rate:    2.7900E-006 rev/day^2
Epoch rev:            1255
Checksum:              321

Satellite: METEOR 2-16
Catalog number: 18312
Epoch time:      100334.93219369
Element set:     872 
Inclination:       82.5550 deg
RA of node:       141.6566 deg
Eccentricity:    0.0012451
Arg of perigee:   340.6184 deg
Mean anomaly:      19.4499 deg
Mean motion:   13.84264960 rev/day
Decay rate:    1.7800E-006 rev/day^2
Epoch rev:           67121
Checksum:              313

Satellite: METEOR 2-17
Catalog number: 18820
Epoch time:      100335.67547758
Element set:     381 
Inclination:       82.5441 deg
RA of node:       192.3102 deg
Eccentricity:    0.0017594
Arg of perigee:    37.6240 deg
Mean anomaly:     322.6155 deg
Mean motion:   13.84923695 rev/day
Decay rate:    3.1899E-006 rev/day^2
Epoch rev:           64877
Checksum:              342

